Year,Month,Day,Hour,Minute,Value (Times are PST for temperature in C)
2012,10,01,10,11,16.40
2012,10,01,10,12,16.40
2012,10,01,10,13,16.50
2012,10,01,10,14,16.60
2012,10,01,10,15,16.70
2012,10,01,10,16,16.70
2012,10,01,10,17,16.80
2012,10,01,10,18,16.90
2012,10,01,10,19,17.00
2012,10,01,10,20,17.10
2012,10,01,10,21,17.20
2012,10,01,10,22,17.20
2012,10,01,10,23,17.20
2012,10,01,10,24,17.20
2012,10,01,10,25,17.30
2012,10,01,10,26,17.30
2012,10,01,10,27,17.30
2012,10,01,10,28,17.40
2012,10,01,10,29,17.50
2012,10,01,10,30,17.60
2012,10,01,10,31,17.70
2012,10,01,10,32,17.80
2012,10,01,10,33,17.90
2012,10,01,10,34,17.90
2012,10,01,10,35,18.10
2012,10,01,10,36,18.20
2012,10,01,10,37,18.20
2012,10,01,10,38,18.30
2012,10,01,10,39,18.30
2012,10,01,10,40,18.30
2012,10,01,10,41,18.30
2012,10,01,10,42,18.20
2012,10,01,10,43,18.30
2012,10,01,10,44,18.30
2012,10,01,10,45,18.30
2012,10,01,10,46,18.40
2012,10,01,10,47,18.50
2012,10,01,10,48,18.50
2012,10,01,10,49,18.60
2012,10,01,10,50,18.60
2012,10,01,10,51,18.70
2012,10,01,10,52,18.80
2012,10,01,10,53,18.90
2012,10,01,10,54,19.00
2012,10,01,10,55,19.10
2012,10,01,10,56,19.20
2012,10,01,10,57,19.30
2012,10,01,10,58,19.30
2012,10,01,10,59,19.30
2012,10,01,11,00,19.30
2012,10,01,11,01,19.40
2012,10,01,11,02,19.40
2012,10,01,11,03,19.30
2012,10,01,11,04,19.30
2012,10,01,11,05,19.30
2012,10,01,11,06,19.40
2012,10,01,11,07,19.40
2012,10,01,11,08,19.50
2012,10,01,11,09,19.60
2012,10,01,11,10,19.60
2012,10,01,11,11,19.70
2012,10,01,11,12,19.70
2012,10,01,11,13,19.70
2012,10,01,11,14,19.80
2012,10,01,11,15,19.80
2012,10,01,11,16,19.90
2012,10,01,11,17,19.80
2012,10,01,11,18,19.80
2012,10,01,11,19,19.80
2012,10,01,11,20,19.80
2012,10,01,11,21,19.90
2012,10,01,11,22,19.90
2012,10,01,11,23,19.90
2012,10,01,11,24,20.00
2012,10,01,11,25,20.10
2012,10,01,11,26,20.10
2012,10,01,11,27,20.20
2012,10,01,11,28,20.20
2012,10,01,11,29,20.20
2012,10,01,11,30,20.20
2012,10,01,11,31,20.20
2012,10,01,11,32,20.30
2012,10,01,11,33,20.30
2012,10,01,11,34,20.40
2012,10,01,11,35,20.50
2012,10,01,11,36,20.50
2012,10,01,11,37,20.50
2012,10,01,11,38,20.60
2012,10,01,11,39,20.60
2012,10,01,11,40,20.60
2012,10,01,11,41,20.60
2012,10,01,11,42,20.70
2012,10,01,11,43,20.80
2012,10,01,11,44,20.80
2012,10,01,11,45,20.90
2012,10,01,11,46,20.90
2012,10,01,11,47,21.00
2012,10,01,11,48,21.00
2012,10,01,11,49,21.10
2012,10,01,11,50,21.10
2012,10,01,11,51,21.20
2012,10,01,11,52,21.10
2012,10,01,11,53,21.10
2012,10,01,11,54,21.10
2012,10,01,11,55,21.10
2012,10,01,11,56,21.00
2012,10,01,11,57,21.00
2012,10,01,11,58,21.10
2012,10,01,11,59,21.00
2012,10,01,12,00,21.00
2012,10,01,12,01,21.00
2012,10,01,12,02,20.90
2012,10,01,12,03,20.90
2012,10,01,12,04,20.80
2012,10,01,12,05,20.70
2012,10,01,12,06,20.70
2012,10,01,12,07,20.60
2012,10,01,12,08,20.60
2012,10,01,12,09,20.60
2012,10,01,12,10,20.70
2012,10,01,12,11,20.70
2012,10,01,12,12,20.80
2012,10,01,12,13,20.80
2012,10,01,12,14,20.90
2012,10,01,12,15,20.90
2012,10,01,12,16,21.00
2012,10,01,12,17,21.00
2012,10,01,12,18,21.00
2012,10,01,12,19,21.00
2012,10,01,12,20,21.00
2012,10,01,12,21,21.00
2012,10,01,12,22,21.00
2012,10,01,12,23,21.10
2012,10,01,12,24,21.20
2012,10,01,12,25,21.20
2012,10,01,12,26,21.30
2012,10,01,12,27,21.30
2012,10,01,12,28,21.30
2012,10,01,12,29,21.30
2012,10,01,12,30,21.30
2012,10,01,12,31,21.30
2012,10,01,12,32,21.40
2012,10,01,12,33,21.40
2012,10,01,12,34,21.50
2012,10,01,12,35,21.60
2012,10,01,12,36,21.60
2012,10,01,12,37,21.70
2012,10,01,12,38,21.90
2012,10,01,12,39,22.00
2012,10,01,12,40,22.00
2012,10,01,12,41,22.00
2012,10,01,12,42,22.00
2012,10,01,12,43,22.00
2012,10,01,12,44,22.10
2012,10,01,12,45,22.10
2012,10,01,12,46,22.10
2012,10,01,12,47,22.10
2012,10,01,12,48,22.10
2012,10,01,12,49,22.10
2012,10,01,12,50,22.20
2012,10,01,12,51,22.30
2012,10,01,12,52,22.40
2012,10,01,12,53,22.50
2012,10,01,12,54,22.60
2012,10,01,12,55,22.60
2012,10,01,12,56,22.70
2012,10,01,12,57,22.70
2012,10,01,12,58,22.70
2012,10,01,12,59,22.80
2012,10,01,13,00,22.80
2012,10,01,13,01,22.90
2012,10,01,13,02,22.80
2012,10,01,13,03,22.70
2012,10,01,13,04,22.60
2012,10,01,13,05,22.60
2012,10,01,13,06,22.60
2012,10,01,13,07,22.60
2012,10,01,13,08,22.60
2012,10,01,13,09,22.50
2012,10,01,13,10,22.40
2012,10,01,13,11,22.30
2012,10,01,13,12,22.30
2012,10,01,13,13,22.20
2012,10,01,13,14,22.10
2012,10,01,13,15,22.00
2012,10,01,13,16,21.90
2012,10,01,13,17,21.70
2012,10,01,13,18,21.60
2012,10,01,13,19,21.50
2012,10,01,13,20,21.40
2012,10,01,13,21,21.30
2012,10,01,13,22,21.20
2012,10,01,13,23,21.20
2012,10,01,13,24,21.30
2012,10,01,13,25,21.30
2012,10,01,13,26,21.30
2012,10,01,13,27,21.40
2012,10,01,13,28,21.50
2012,10,01,13,29,21.60
2012,10,01,13,30,21.60
2012,10,01,13,31,21.50
2012,10,01,13,32,21.40
2012,10,01,13,33,21.40
2012,10,01,13,34,21.30
2012,10,01,13,35,21.30
2012,10,01,13,36,21.20
2012,10,01,13,37,21.20
2012,10,01,13,38,21.10
2012,10,01,13,39,21.10
2012,10,01,13,40,21.00
2012,10,01,13,41,21.00
2012,10,01,13,42,21.00
2012,10,01,13,43,21.00
2012,10,01,13,44,20.90
2012,10,01,13,45,20.80
2012,10,01,13,46,20.80
2012,10,01,13,47,20.80
2012,10,01,13,48,20.70
2012,10,01,13,49,20.70
2012,10,01,13,50,20.60
2012,10,01,13,51,20.60
2012,10,01,13,52,20.50
2012,10,01,13,53,20.50
2012,10,01,13,54,20.40
2012,10,01,13,55,20.40
2012,10,01,13,56,20.30
2012,10,01,13,57,20.20
2012,10,01,13,58,20.20
2012,10,01,13,59,20.20
2012,10,01,14,00,20.20
2012,10,01,14,01,20.30
2012,10,01,14,02,20.30
2012,10,01,14,03,20.40
2012,10,01,14,04,20.40
2012,10,01,14,05,20.50
2012,10,01,14,06,20.50
2012,10,01,14,07,20.60
2012,10,01,14,08,20.80
2012,10,01,14,09,21.00
2012,10,01,14,10,21.20
2012,10,01,14,11,21.40
2012,10,01,14,12,21.50
2012,10,01,14,13,21.60
2012,10,01,14,14,21.90
2012,10,01,14,15,22.10
2012,10,01,14,16,22.30
2012,10,01,14,17,22.50
2012,10,01,14,18,22.60
2012,10,01,14,19,22.80
2012,10,01,14,20,22.90
2012,10,01,14,21,23.10
2012,10,01,14,22,23.20
2012,10,01,14,23,23.30
2012,10,01,14,24,23.30
2012,10,01,14,25,23.30
2012,10,01,14,26,23.30
2012,10,01,14,27,23.30
2012,10,01,14,28,23.30
2012,10,01,14,29,23.30
2012,10,01,14,30,23.30
2012,10,01,14,31,23.30
2012,10,01,14,32,23.30
2012,10,01,14,33,23.30
2012,10,01,14,34,23.30
2012,10,01,14,35,23.30
2012,10,01,14,36,23.30
2012,10,01,14,37,23.30
2012,10,01,14,38,23.20
2012,10,01,14,39,23.10
2012,10,01,14,40,23.10
2012,10,01,14,41,23.10
2012,10,01,14,42,23.00
2012,10,01,14,43,22.90
2012,10,01,14,44,22.90
2012,10,01,14,45,22.90
2012,10,01,14,46,22.70
2012,10,01,14,47,22.60
2012,10,01,14,48,22.50
2012,10,01,14,49,22.50
2012,10,01,14,50,22.30
2012,10,01,14,51,22.20
2012,10,01,14,52,22.10
2012,10,01,14,53,22.10
2012,10,01,14,54,22.00
2012,10,01,14,55,21.90
2012,10,01,14,56,21.90
2012,10,01,14,57,22.00
2012,10,01,14,58,22.00
2012,10,01,14,59,22.10
2012,10,01,15,00,22.20
2012,10,01,15,01,22.20
2012,10,01,15,02,22.30
2012,10,01,15,03,22.40
2012,10,01,15,04,22.40
2012,10,01,15,05,22.50
2012,10,01,15,06,22.50
2012,10,01,15,07,22.60
2012,10,01,15,08,22.70
2012,10,01,15,09,22.70
2012,10,01,15,10,22.70
2012,10,01,15,11,22.80
2012,10,01,15,12,22.90
2012,10,01,15,13,22.90
2012,10,01,15,14,22.80
2012,10,01,15,15,22.80
2012,10,01,15,16,22.80
2012,10,01,15,17,22.90
2012,10,01,15,18,22.90
2012,10,01,15,19,22.90
2012,10,01,15,20,22.90
2012,10,01,15,21,22.90
2012,10,01,15,22,22.90
2012,10,01,15,23,22.90
2012,10,01,15,24,22.90
2012,10,01,15,25,22.90
2012,10,01,15,26,23.00
2012,10,01,15,27,23.10
2012,10,01,15,28,23.20
2012,10,01,15,29,23.20
2012,10,01,15,30,23.20
2012,10,01,15,31,23.30
2012,10,01,15,32,23.20
2012,10,01,15,33,23.10
2012,10,01,15,34,23.10
2012,10,01,15,35,23.10
2012,10,01,15,36,23.10
2012,10,01,15,37,23.10
2012,10,01,15,38,23.10
2012,10,01,15,39,23.10
2012,10,01,15,40,22.90
2012,10,01,15,41,22.90
2012,10,01,15,42,22.90
2012,10,01,15,43,22.90
2012,10,01,15,44,22.70
2012,10,01,15,45,22.60
2012,10,01,15,46,22.60
2012,10,01,15,47,22.50
2012,10,01,15,48,22.40
2012,10,01,15,49,22.40
2012,10,01,15,50,22.40
2012,10,01,15,51,22.40
2012,10,01,15,52,22.40
2012,10,01,15,53,22.40
2012,10,01,15,54,22.40
2012,10,01,15,55,22.40
2012,10,01,15,56,22.40
2012,10,01,15,57,22.40
2012,10,01,15,58,22.40
2012,10,01,15,59,22.40
2012,10,01,16,00,22.40
2012,10,01,16,01,22.40
2012,10,01,16,02,22.30
2012,10,01,16,03,22.30
2012,10,01,16,04,22.30
2012,10,01,16,05,22.20
2012,10,01,16,06,22.20
2012,10,01,16,07,22.10
2012,10,01,16,08,22.10
2012,10,01,16,09,22.10
2012,10,01,16,10,22.10
2012,10,01,16,11,22.10
2012,10,01,16,12,22.10
2012,10,01,16,13,22.10
2012,10,01,16,14,22.10
2012,10,01,16,15,22.10
2012,10,01,16,16,22.10
2012,10,01,16,17,22.10
2012,10,01,16,18,22.10
2012,10,01,16,19,22.00
2012,10,01,16,20,22.00
2012,10,01,16,21,22.00
2012,10,01,16,22,22.00
2012,10,01,16,23,22.00
2012,10,01,16,24,22.00
2012,10,01,16,25,21.90
2012,10,01,16,26,21.90
2012,10,01,16,27,21.90
2012,10,01,16,28,21.90
2012,10,01,16,29,21.90
2012,10,01,16,30,21.90
2012,10,01,16,31,21.90
2012,10,01,16,32,21.90
2012,10,01,16,33,21.90
2012,10,01,16,34,21.90
2012,10,01,16,35,21.90
2012,10,01,16,36,21.80
2012,10,01,16,37,21.80
2012,10,01,16,38,21.80
2012,10,01,16,39,21.80
2012,10,01,16,40,21.80
2012,10,01,16,41,21.80
2012,10,01,16,42,21.80
2012,10,01,16,43,21.80
2012,10,01,16,44,21.70
2012,10,01,16,45,21.70
2012,10,01,16,46,21.70
2012,10,01,16,47,21.60
2012,10,01,16,48,21.60
2012,10,01,16,49,21.60
2012,10,01,16,50,21.60
2012,10,01,16,51,21.60
2012,10,01,16,52,21.60
2012,10,01,16,53,21.60
2012,10,01,16,54,21.60
2012,10,01,16,55,21.60
2012,10,01,16,56,21.60
2012,10,01,16,57,21.60
2012,10,01,16,58,21.50
2012,10,01,16,59,21.40
2012,10,01,17,00,21.40
2012,10,01,17,01,21.40
2012,10,01,17,02,21.30
2012,10,01,17,03,21.30
2012,10,01,17,04,21.30
2012,10,01,17,05,21.30
2012,10,01,17,06,21.30
2012,10,01,17,07,21.30
2012,10,01,17,08,21.30
2012,10,01,17,09,21.30
2012,10,01,17,10,21.30
2012,10,01,17,11,21.20
2012,10,01,17,12,21.10
2012,10,01,17,13,21.00
2012,10,01,17,14,21.00
2012,10,01,17,15,20.90
2012,10,01,17,16,20.90
2012,10,01,17,17,20.80
2012,10,01,17,18,20.80
2012,10,01,17,19,20.70
2012,10,01,17,20,20.70
2012,10,01,17,21,20.60
2012,10,01,17,22,20.50
2012,10,01,17,23,20.40
2012,10,01,17,24,20.40
2012,10,01,17,25,20.30
2012,10,01,17,26,20.20
2012,10,01,17,27,20.20
2012,10,01,17,28,20.20
2012,10,01,17,29,20.20
2012,10,01,17,30,20.10
2012,10,01,17,31,20.10
2012,10,01,17,32,20.00
2012,10,01,17,33,19.90
2012,10,01,17,34,19.90
2012,10,01,17,35,19.90
2012,10,01,17,36,19.80
2012,10,01,17,37,19.80
2012,10,01,17,38,19.80
2012,10,01,17,39,19.70
2012,10,01,17,40,19.70
2012,10,01,17,41,19.70
2012,10,01,17,42,19.60
2012,10,01,17,43,19.60
2012,10,01,17,44,19.60
2012,10,01,17,45,19.50
2012,10,01,17,46,19.50
2012,10,01,17,47,19.50
2012,10,01,17,48,19.40
2012,10,01,17,49,19.40
2012,10,01,17,50,19.30
2012,10,01,17,51,19.30
2012,10,01,17,52,19.30
2012,10,01,17,53,19.20
2012,10,01,17,54,19.20
2012,10,01,17,55,19.20
2012,10,01,17,56,19.10
2012,10,01,17,57,19.10
2012,10,01,17,58,19.10
2012,10,01,17,59,19.00
2012,10,01,18,00,18.90
2012,10,01,18,01,18.90
2012,10,01,18,02,18.90
2012,10,01,18,03,18.90
2012,10,01,18,04,18.80
2012,10,01,18,05,18.80
2012,10,01,18,06,18.70
2012,10,01,18,07,18.70
2012,10,01,18,08,18.60
2012,10,01,18,09,18.60
2012,10,01,18,10,18.50
2012,10,01,18,11,18.50
2012,10,01,18,12,18.40
2012,10,01,18,13,18.30
2012,10,01,18,14,18.30
2012,10,01,18,15,18.20
2012,10,01,18,16,18.20
2012,10,01,18,17,18.20
2012,10,01,18,18,18.10
2012,10,01,18,19,18.00
2012,10,01,18,20,17.90
2012,10,01,18,21,17.90
2012,10,01,18,22,17.80
2012,10,01,18,23,17.80
2012,10,01,18,24,17.70
2012,10,01,18,25,17.60
2012,10,01,18,26,17.60
2012,10,01,18,27,17.50
2012,10,01,18,28,17.50
2012,10,01,18,29,17.40
2012,10,01,18,30,17.30
2012,10,01,18,31,17.30
2012,10,01,18,32,17.20
2012,10,01,18,33,17.10
2012,10,01,18,34,17.00
2012,10,01,18,35,16.90
2012,10,01,18,36,16.90
2012,10,01,18,37,16.80
2012,10,01,18,38,16.70
2012,10,01,18,39,16.70
2012,10,01,18,40,16.70
2012,10,01,18,41,16.50
2012,10,01,18,42,16.40
2012,10,01,18,43,16.40
2012,10,01,18,44,16.30
2012,10,01,18,45,16.30
2012,10,01,18,46,16.20
2012,10,01,18,47,16.20
2012,10,01,18,48,16.10
2012,10,01,18,49,16.10
2012,10,01,18,50,16.10
2012,10,01,18,51,16.10
2012,10,01,18,52,16.10
2012,10,01,18,53,16.10
2012,10,01,18,54,16.10
2012,10,01,18,55,16.10
2012,10,01,18,56,16.10
2012,10,01,18,57,16.10
2012,10,01,18,58,16.10
2012,10,01,18,59,16.10
2012,10,01,19,00,16.10
2012,10,01,19,01,16.10
2012,10,01,19,02,16.10
